EW7329 Weather Reports


time (UTC)temp
C
wind
direction
speed
KPH
gust
KPH
rain 1hr
cm
rain 24hr
cm
rain mn
cm
humidity
%
barometer
mb
20260503021521 6 5 0.0 1.6 0.00 0.00 0.00 80 1011.8
20260503020019 7 5 0.0 0.0 0.00 0.00 0.00 80 1011.9
20260503014516 7 5 0.0 0.0 0.00 0.00 0.00 79 1012.0
20260503013027 7 5 0.0 1.6 0.00 0.00 0.00 78 1012.0
20260503011513 7 5 0.0 1.6 0.00 0.00 0.00 79 1012.1
20260503010013 7 5 0.0 0.0 0.00 0.00 0.00 78 1012.2
20260503004508 8 5 0.0 0.0 0.00 0.00 0.00 76 1012.2
20260503003008 8 5 0.0 0.0 0.00 0.00 0.00 74 1012.3
20260503001504 8 5 0.0 0.0 0.00 0.00 0.00 73 1012.3
20260503000001 9 5 0.0 1.6 0.00 0.00 0.00 72 1012.4
20260502234618 9 5 0.0 1.6 0.00 0.00 0.00 72 1012.5
20260502233059 9 5 0.0 1.6 0.00 0.00 0.00 72 1012.6
20260502231554 10 5 0.0 0.0 0.00 0.00 0.00 71 1012.7
20260502230057 10 5 0.0 0.0 0.00 0.00 0.00 69 1012.8
20260502224548 10 5 0.0 0.0 0.00 0.00 0.00 68 1012.9
20260502223058 11 5 0.0 0.0 0.00 0.00 0.00 68 1012.9
20260502221544 11 5 0.0 1.6 0.00 0.00 0.00 66 1013.0
20260502220043 11 5 0.0 1.6 0.00 0.00 0.00 67 1013.1
20260502214542 11 5 0.0 1.6 0.00 0.00 0.00 66 1012.9
20260502213046 11 5 0.0 3.2 0.00 0.00 0.00 65 1013.0
20260502211541 12 5 1.6 4.8 0.00 0.00 0.00 65 1012.9
20260502210041 12 5 1.6 4.8 0.00 0.00 0.00 63 1012.9
20260502204540 13 82 0.0 1.6 0.00 0.00 0.00 60 1013.0
20260502203046 13 82 0.0 1.6 0.00 0.00 0.00 59 1013.0
20260502201541 13 82 0.0 4.8 0.00 0.00 0.00 57 1013.0
20260502200039 15 82 0.0 1.6 0.00 0.00 0.00 56 1013.0
20260502194537 15 82 3.2 4.8 0.00 0.00 0.00 53 1013.0
20260502193053 16 82 0.0 3.2 0.00 0.00 0.00 52 1013.0
20260502191539 16 82 0.0 3.2 0.00 0.00 0.00 50 1012.9
20260502190043 17 82 3.2 6.4 0.00 0.00 0.00 46 1012.7
20260502184545 18 123 0.0 3.2 0.00 0.00 0.00 44 1012.6
20260502183036 18 123 0.0 3.2 0.00 0.00 0.00 41 1012.4
20260502181537 19 123 1.6 3.2 0.00 0.00 0.00 39 1012.2
20260502163029 23 155 3.2 6.4 0.00 0.00 0.00 31 1012.4
20260502161531 23 165 3.2 12.9 0.00 0.00 0.00 31 1012.5
20260502151522 24 109 3.2 16.1 0.00 0.00 0.00 29 1013.1
20260502123100 23 136 8.0 16.1 0.00 0.00 0.00 34 1014.7
20260502121558 23 157 6.4 16.1 0.00 0.00 0.00 30 1015.0
20260502114553 23 163 3.2 17.7 0.00 0.00 0.00 32 1015.3
20260502113101 23 138 8.0 22.5 0.00 0.00 0.00 32 1015.5
20260502111547 22 35 6.4 12.9 0.00 0.00 0.00 34 1015.6
20260502110047 22 182 1.6 11.3 0.00 0.00 0.00 39 1015.9
20260502104543 22 183 3.2 12.9 0.00 0.00 0.00 37 1016.1
20260502103040 22 179 6.4 14.5 0.00 0.00 0.00 39 1016.3
20260502101543 22 231 0.0 9.7 0.00 0.00 0.00 36 1016.5
20260502091527 20 10 4.8 16.1 0.00 0.00 0.00 38 1017.2
20260502070114 15 332 1.6 4.8 0.00 0.00 0.00 53 1018.2
20260502064551 13 275 0.0 3.2 0.00 0.00 0.00 58 1018.3
20260502063046 12 275 0.0 4.8 0.00 0.00 0.00 61 1018.4
20260502061543 11 309 0.0 3.2 0.00 0.00 0.00 68 1018.6
20260502060043 10 306 1.6 6.4 0.00 0.00 0.00 68 1018.6
20260502054544 8 319 3.2 6.4 0.00 0.00 0.00 72 1018.7
20260502053033 7 326 0.0 3.2 0.00 0.00 0.00 77 1018.6
20260502051534 6 326 1.6 6.4 0.00 0.00 0.00 79 1018.7
20260502050037 6 314 0.0 1.6 0.00 0.00 0.00 80 1018.6
20260502044530 6 314 0.0 1.6 0.00 0.00 0.00 80 1018.6
20260502043030 6 314 0.0 3.2 0.00 0.00 0.00 79 1018.6
20260502041552 6 323 0.0 3.2 0.00 0.00 0.00 79 1018.5
20260502040046 6 331 0.0 3.2 0.00 0.00 0.00 79 1018.3
20260502034528 6 331 1.6 4.8 0.00 0.00 0.00 79 1018.4
20260502033032 6 331 1.6 6.4 0.00 0.00 0.00 80 1018.3
20260502031527 6 323 0.0 4.8 0.00 0.00 0.00 79 1018.3
20260502030030 6 313 1.6 4.8 0.00 0.00 0.00 80 1018.4
20260502024524 5 318 1.6 8.0 0.00 0.00 0.00 82 1018.5
20260502023031 5 327 3.2 4.8 0.00 0.00 0.00 83 1018.5